Espace membre
Imprimable
Challenges > Delhalle - Louette Saint-Pierre, 24/07/2010, BEL - L'Ardennaise
Liste des rapports > Delhalle - 22.5km - Classement
Recherche: Page: [1] 2
602 Entrées
 
Les réclamations ne sont plus acceptées, les résultats sont considérés comme définitifs.
Catégorie
PosNrNomAgeIOCLigueEquipeRéelTempsTkmMoy.RangNomPtsLocalité
1.2560DUPONT Eddy41BELMOHAOXY 20001:21:181:21:203:37 16.601ve11103ECAUSSINNES
2.686GALERIN Denis26BELDAMPANTILOB1:21:391:21:403:38 16.531sen1097WAVRE
3.3NEMETH Christian39BELCABWESM1:21:381:21:403:38 16.532sen1097MONCEAU SUR SAM
4.644POCHET Anthony27BEL1:21:471:21:493:39 16.503sen1094BEAURAING
5.2592DENIS Sylvain27BELTRIGT1:21:591:22:013:39 16.464sen1091
6.4VANDERBECK Yves42BELRIWARONVAU1:22:261:22:273:40 16.372ve11085MALONNE
7.2316THEUNIS Gert Hilda35BELFCHAASICS1:24:011:24:043:45 16.065sen1064HANNUT
8.238VAN DEN ABEELE Sebastian40BELACLO1:25:521:25:533:50 15.723ve11041CARNIERES
9.659MAHIA Sebastien24BELSMAC1:25:511:25:533:50 15.726sen1041JAMBES
10.597DECOURTY Jimmy36BELDSDS RUNNING1:26:511:26:533:52 15.547sen1028BOUSSU
11.342LOMBART Frederic43BELOCAN1:27:191:27:213:53 15.464ve11022GEMBLOUX
12.767CAMBRAI Christian46BELDAMP1:28:031:28:063:55 15.325ve11013LIBRAMONT
13.2546VANDERLINDEN Marc52BELCEPAL1:28:191:28:243:56 15.271ve21009WATERMAEL
14.699ETIENNE Fabrice41BELRCNAMUR1:29:451:29:474:00 15.046ve1992FLOREFFE
15.11DUBOIS Michel53BELHERVJOGGPLUS1:29:551:29:574:00 15.012ve2989WELKENRAEDT
16.2585BAUDSON Marcel50BELCEPAL1:30:431:30:474:03 14.873ve2979BRUXELLES
17.291PAULY Michel49BELHERV1:30:591:31:014:03 14.837ve1976BOLLAND
18.2548CAMUS Renaud31BELPSA CITROEN1:31:031:31:074:03 14.828sen974
19.548LEPIED Philippe50BELGERP & CO1:31:041:31:084:04 14.814ve2974GERPINNES
20.2487WEETS Olivier39BELSOLVAY BUSIN1:31:191:31:214:04 14.789sen970BEERSEL
21.780HERMANS Luc53BELDCLA1:31:381:31:404:05 14.735ve2966LINKHOUT
22.2262FRANCIS Alain48BELFLEUESM1:31:401:31:434:05 14.728ve1965RANSART
23.278HANOT Serge47BELRONVAU1:31:451:31:474:05 14.719ve1964LIERNU
24.2278SNOECK Didier40BELCEPAL1:31:541:31:584:06 14.6810ve1961TERVUREN
25.2298HARDENNE Andre45BEL1:31:591:32:024:06 14.6711ve1960FLEURUS
26.2277SCHIMENTI Fabrice41BELTRIGT1:32:251:32:354:07 14.5812ve1954ELLEZELLES
27.2616PIRON Mathieu Hugues30BELARCH1:32:311:32:434:08 14.5610sen953MALONNE
28.6BULTOT Christian52BELARCHJOGGPLUS1:32:471:32:504:08 14.546ve2949SCHALTIN
29.15HENIN Didier52BELFLEUJOGGPLUS1:33:061:33:094:09 14.497ve2945CHATELET
30.5FVANDROOGENBROECK Virginie39BELCABWJOGGPLUS1:33:321:33:354:10 14.431dam939BRAINE L'ALLEUD
31.921ROSSI Claude52BELJOGGPLUS1:33:331:33:364:10 14.428ve2939YVOIR
32.717FDELDICQUE Louise29BELCSDY1:33:561:33:594:11 14.362dam934
33.230SANCHEZ POSADA Luis50BELUSBWCACE1:34:021:34:064:11 14.359ve2932RHODE ST GENESE
34.327CANTELLA Massimo37BELMYSTERE1:34:021:34:064:11 14.3511sen932BEAUVECHAIN
35.689KRINGS Viktor50BELRURSEE MAR1:34:051:34:094:12 14.3410ve2931NIDRUM
36.2519DEMARS Maxime22BELJCCS1:34:211:34:384:13 14.2712sen927
37.2489VERSTREPEN Frédéric Christian38BELJOGPLUS1:34:411:34:444:13 14.2513sen923LA BRUYÈRE
38.228MARCHAL Yves40BELRUN WILD1:34:581:35:034:14 14.2013ve1919VEDRIN
39.2283VERRUE Vincent34BELWALCOURSE1:35:051:35:084:14 14.1914sen917YVES-GOMEZÉE
40.406NEYMAN Eric42BEL1:35:261:35:294:15 14.1414ve1913HERON
41.2476DENEEF Alfons56BELAXA TEAM1:35:431:35:454:16 14.1011ve2910LIEDEKERKE
42.2273MIEVIS Stéphane31BEL1:36:051:36:164:17 14.0215sen905
43.2531GUILLEMAIN Stephane35BELLCM1:36:161:36:184:17 14.0216sen902
44.2351ADAM Pierre26BEL1:36:201:36:204:17 14.0117sen901RIENNE
45.490MORA-CUEVAS Rafael39BELOSGATEAM PVERT1:35:571:36:264:18 14.0018sen905HAUTRAGE
46.75RIGUELLE Francois29BELFLEUFLEU ATHL1:36:571:37:074:19 13.9019sen893SOMBREFFE
47.625WOOLF Alain49BELAC ORLE JOUR1:37:191:37:224:20 13.8715ve1889DONCEEL
48.2299RENARD Yves44BELPWERES1:37:031:37:284:20 13.8516ve1891
49.2594DEGEIMBRE Michel48BELARCHARCH1:37:301:37:344:21 13.8417ve1886AWAGNE
50.2466FAGNON Regis49FRAAC AY1:37:351:37:414:21 13.8218ve1884
51.321ORVAL Alain41BELHAC1:37:421:37:454:21 13.8119ve1882CINEY
52.181LABBE J.Marie50BEL1:38:061:38:094:22 13.7512ve2878EGHEZEE
53.237DOS SANTOS NEIVA Sergio37BELARCH1:38:291:38:314:23 13.7020sen873DINANT
54.774RICHARD Andre56BELARCHASICS1:38:541:38:594:24 13.6413ve2868SAINT SERVAIS
55.445RUELLE Jean38BELETCHIEVR1:38:591:39:034:25 13.6321sen866WEZEMBEEK-OPPEM
56.2605LEYDER Olivier34BELESPACE CYCLE1:38:541:39:114:25 13.6122sen867TATTERT
57.2294TUTELAIRE Marc47BEL1:39:241:39:274:26 13.5720ve1861
58.2523JACQMIN Damien Nestor31BEL1:39:411:39:504:27 13.5223sen857LIBIN
59.2575ZACARIAS Laurent45FRAUSCN1:39:441:39:534:27 13.5221ve1857VRIGNE AUX BOIS
60.2587CASTEELS Nicolas30BELCEPAL1:40:031:40:084:28 13.4824sen852WAVRE
61.2446FVANDERMEULEN Séverine29BELCEPAL1:40:041:40:084:28 13.483dam852LIÈGE
62.2638BAUDOUIN Jean-Marc31BEL1:40:121:40:224:28 13.4525sen850
63.772FSCHAFFRATH Ginette45BELRFCLMYSTERE1:40:211:40:264:28 13.441ai1848COMBLAIN-FAIRON
64.697VAN BAVEL Gertjan21BELAVN1:40:181:40:264:28 13.4426sen847MINDERHOUT
65.2535AMEYE Jo48BELATAC1:40:261:40:324:29 13.4322ve1845
66.518UITDEBROEKS Romain60BELACA1:40:351:40:384:29 13.421ve3844ALKEN
67.604DESSAMBRE Marcel61BELOCANJOGGPLUS1:40:361:40:404:29 13.412ve3843NAMECHE
68.2352BAIJOT Eric44BELARCH1:40:521:40:554:30 13.3823ve1839DINANT
69.2483CASTERMANS David Christian39BEL1:40:331:41:014:30 13.3627sen842LA BRUYÈRE
70.2543LECOMTE Florent32BELUSCN1:40:561:41:044:30 13.3628sen838
71.2437THYS Ronny47BELVACH1:41:041:41:094:30 13.3524ve1836HASSELT
72.2626TASSIAUX Olivier29BEL1:41:091:41:234:31 13.3229sen834FAULX-LES-TOMBE
73.2393HECQ Olivier44BELJ31:41:011:41:244:31 13.3125ve1835ANDENNE
74.714MAILIER Christian54BELCRACESM1:40:451:41:284:31 13.3014ve2837ROUX
75.2564DEWULF Luc51BELHAC -1:41:261:41:344:31 13.2915ve2830BEKEGEM
76.2292GIGOT Jacques Emile43BEL1:41:311:41:374:31 13.2926ve1828ANDERLECHT
77.146VAN NEVEL Frans56BELBEHO1:41:311:41:544:32 13.2516ve2828BRUGGE
78.2558DEBOUNY Nicolas43BEL1:41:451:42:024:33 13.2327ve1825
79.783POCHET Fabrice44BEL1:42:091:42:134:33 13.2128ve1820ANDENNE
80.2619VANRIE Pierre Andre43BELGTC1:42:101:42:324:34 13.1729ve1819SAINT-GILLES
81.675TRUYERS Hugo62BELDCLA1:42:341:42:364:34 13.163ve3815LINKHOUT
82.2257DENDAL Didier47BEL1:42:311:42:374:34 13.1630ve1815LIÈGE
83.2374DELHASSE Pierre53BEL1:42:351:42:404:34 13.1517ve2813BAILLAMONT
84.2260DUPRET Didier43BELBAC1:42:461:42:474:35 13.1331ve1811CHERCQ
85.2474HEMERYCK Willy51BELSODIBR1:43:001:43:064:35 13.0918ve2808SINT-KRUIS
86.2456BAUDSON Jacques51BELCEPALCEPAL1:43:141:43:174:36 13.0719ve2805GOSSELIES
87.2559DA SILVA Tony34PRTRTS1:43:041:43:204:36 13.0630sen807SPRIMONT
88.2398KINET Maxime28BEL1:43:131:43:254:36 13.0531sen804
89.2550FFROMENT Sabine35BELACCORCNAMUR1:43:211:43:324:37 13.044dam802LOBBES
90.535ROMBAUX Marc50BELCSDY1:43:171:43:324:37 13.0420ve2802LOUVAIN LA NEUV
91.2408MAQUA Frédéric43FRAGRAC1:43:471:43:534:38 13.0032ve1797LUMES
92.599OUDAR Benoit28BELBAIL RUN1:44:151:44:234:39 12.9332sen792FLOREFFE
93.742RATINCKX Christophe19BELRIWA1:44:381:44:464:40 12.891esp787BIERGES
94.706LEGRAIN Fabrice37BEL1:44:411:44:494:40 12.8833sen786ECAUSSINNES
95.431MARTIN Eric47BEL1:44:251:44:494:40 12.8833ve1788WANDRE
96.2586ROSILLON Dominique Gaston53BELARCH1:44:441:44:514:40 12.8821ve2785GESVES
97.2540PIHET Vincent39FRAMONTHERME1:44:521:44:524:40 12.8734sen783
98.852PEETERS Gerard57BELANTILOB1:44:561:45:044:41 12.8522ve2781HAMME-MILLE
99.906DELVAUX Paul66BELACACAMPFOOT1:45:021:45:084:41 12.844ve3780DIEPENBEEK
100.2475CORNELIS Wim54BEL1:45:201:45:274:42 12.8023ve2776WAMBEEK
101.122FELIERS Eddy42BELKAPUCIJN1:45:231:45:304:42 12.8034ve1775TERVUREN
102.58HENRY Andre50BELTENDONS1:45:261:45:324:42 12.7924ve2774LA HULPE
103.2496MASSINON Jules19BEL1:45:231:45:384:42 12.782esp774
104.2414MORAT Nicolas41FRAFJEP ATTIGNY1:45:311:45:394:42 12.7835ve1772
105.2477SMEETS Jef55BELVALSACN1:45:271:45:404:42 12.7825ve2772
106.2479GIELKENS Ruddi51BELSACN1:45:281:45:404:42 12.7826ve2772
107.2275OLIVIER Philippe43BEL1:45:221:45:444:42 12.7736ve1772HANEFFE
108.2427REBUFFAT Clément37BELJCCS1:45:371:45:474:43 12.7635sen769LOUETTE-SAINT-P
109.2637BARBIER Amory16BEL1:45:431:45:534:43 12.753esp768
110.2252FBELABBES Angelique36BELCEPAL1:45:381:45:554:43 12.755dam768TERVUREN
111.2288BEEKEN Walther60BELJOGGING +1:46:031:46:094:44 12.725ve3763LIEDEKERKE
112.2459TORDOIR Eric48BELRCB1:45:531:46:114:44 12.7137ve1764LA LOUVIERE
113.2541WARNIER Nicolas37FRA1:46:071:46:144:44 12.7136sen761
114.606LESNE Didier46BELLDLV1:45:441:46:164:44 12.7038ve1765BRAINE L'ALLEUD
115.595SOREIL Patrick48BELARCH1:46:041:46:304:44 12.6839ve1761DINANT
116.2312DEPUTTER Francis44BELTAIAUT1:45:451:46:384:45 12.6640ve1763CHATELET
117.46FOLIX Cheila47BELARCH1:46:341:46:394:45 12.662ai1755BEAURAING
118.2562DA CRUZ Jean54BEL1:46:281:46:414:45 12.6527ve2755NAMUR
119.2402LAUREYS Pierre49BELANTILOB1:46:001:46:454:45 12.6541ve1759LOUVAIN-LA-NEUV
120.544COLLET Sebastien25BEL1:46:331:46:454:45 12.6537sen753LEGLISE
120.2525NAVET Ludovic19BEL1:46:431:46:454:45 12.654esp752CHANLY
122.2440VALANGE Jean49BELARCHARCH1:46:181:46:504:45 12.6442ve1755SERINCHAMPS
123.125FVAN DER ZWALMEN Sabine30BELRIWA1:46:591:47:024:46 12.616dam747LASNE
124.254FLORENT Xavier32BEL1:46:581:47:074:46 12.6038sen747NAMUR
125.2642CUVILLIERS Benoit38FRA1:47:221:47:274:47 12.5639sen742VILLENEUVE D'AS
126.621PAYE Dominique43BEL1:47:211:47:334:47 12.5543ve1742NAMUR
127.703BINKERT Marc49BELLDLV1:47:271:47:404:48 12.5444ve1741GANSHOREN
128.580HOMBROUX Marcel57BELFCHA1:47:121:47:434:48 12.5328ve2742GINGELOM
129.22DE MASI Gianni57BELFLEU1:47:331:47:464:48 12.5329ve2738WANFERCEE BAULE
130.2611GOOSSE Gerard58BEL1:47:241:47:564:48 12.5130ve2739ARVILLE
131.427VAN DER LINDEN Paul61BELRCNAMUR1:47:531:47:574:48 12.516ve3734MALONNE
132.71DE HERTOG Daniel51BELGRIM1:47:581:48:024:49 12.5031ve2732GRIMBERGEN
133.2305OOSTLAND Stephane40BEL1:48:001:48:144:49 12.4745ve1732MAZY
134.2608JACQMIN Nathanaël45BEL1:48:121:48:304:50 12.4446ve1729MALONNE
135.737DE PESSEMIER Michel53BELACG1:48:251:48:364:50 12.4332ve2727BRAKEZ
136.93FBUZIN Donatienne43BELARCH1:48:411:48:544:51 12.403ai1724HAN SUR LESSE
137.626HANSEN J.Marie52BEL1:48:541:49:004:51 12.3933ve2721SPY
138.2405LEVACQ Guy64BEL1:49:041:49:174:52 12.357ve3719
139.672DELIEGE Robert57BELRONVAU1:49:121:49:214:52 12.3534ve2717GEMBLOUX
140.521RAEYMAEKERS Ludovic56BELBRABO1:49:241:49:334:53 12.3235ve2714EKEREN
141.404TILBURGS Frank43BELAVN1:49:291:49:374:53 12.3247ve1713MEER
142.234GILSON Nicolas22BELARCH1:49:081:49:414:53 12.3140sen716CINEY
143.2462LALLEMAND Luc50BELCEPAL1:49:441:49:514:53 12.2936ve2710BRUXELLES
144.2314STEINIER Thierry48BELJCHSH1:49:521:50:034:54 12.2748ve1708JUMET
145.2511BOUSMANNE Marc37BELCEPAL1:50:081:50:144:54 12.2541sen705SAINT-SYMPHORIE
146.2612DE BILDERING Georges43BELSMAC1:50:061:50:194:55 12.2449ve1705
147.778MINETTE Sebastien30BEL1:50:151:50:244:55 12.2342sen702CHATELINEAU
148.2311BOQUE Didier45BEL1:49:571:50:254:55 12.2350ve1705GRAND LEEZ
149.2388FGOFFINET Florence32BELSMAC1:50:131:50:274:55 12.227dam702JAMBES
150.2461ROGER Pascal45FRA1:50:251:50:334:55 12.2151ve1699CORSEPT
151.671CLARINVAL Julien26BELJCCS1:50:321:50:384:56 12.2043sen698HOUDREMONT
152.2486FBELABBES Myriam36BELCEPAL1:50:401:50:464:56 12.198dam696RHODE SAINT GEN
153.479CORNU Samuel33BEL1:50:421:50:464:56 12.1944sen695PERONNES-LEZ-AN
154.2641BOULET David37BEL1:50:461:50:524:56 12.1845sen694
155.2602LION Cedric38FRA1:50:451:50:574:56 12.1746sen693
156.2404LENAERTS Carl47BEL1:50:501:51:034:57 12.1652ve1692
157.542BOONE Pascal40BELDAMP1:50:401:51:114:57 12.1453ve1693SAINT-MARD
157.660POLET Alain47BELSMAC1:51:021:51:114:57 12.1453ve1690BOUGE
159.438FFAVEAUX Patricia43BELARCH1:51:081:51:124:57 12.144ai1687CINEY
160.179LHOTTE René57FRAHRC1:50:521:51:134:57 12.1437ve2690TERMES
161.210DALCQ Jean-Claude47BELRONVAU1:51:071:51:174:57 12.1355ve1686WALHAIN
162.184LEFEBVRE Daniel55BELETCHIEVR1:51:261:51:374:58 12.0938ve2683CHIEVRES
163.2574BAIJOT Philippe44BEL1:51:241:51:504:59 12.0756ve1683
164.2505SOUMOY Alain48BELJTRR1:51:261:51:574:59 12.0657ve1682
165.2526STEVENS Christophe38BELNAC1:51:381:51:594:59 12.0647sen679NIVELLES
166.2593ENTHOVEN David61BELACD1:51:441:52:004:59 12.058ve3678B-6760 VIRTON
167.2578FSAC Myriam49BELACBBS1:51:551:52:034:59 12.055ai1676
168.556RATINCKX Jean Philippe22BELRIWA1:52:041:52:125:00 12.0348sen674BIERGES
169.429DENEFFE Philippe49BELJCHOUYET1:52:141:52:145:00 12.0358ve1672HOUYET
170.650GLORIEUX Frederic38BEL1:51:411:52:185:00 12.0249sen676ANDERLECHT
171.67FERAUCHE Jean Marie61BELUACDILAVILE1:52:191:52:275:00 12.019ve3670LES BONS VILLER
172.98DEBREUX Yul46BELHRC1:51:581:52:335:01 11.9959ve1672MARBEHAN
173.2530ANDRES Michael32BEL1:52:211:52:335:01 11.9950sen668NAMUR
174.193DI BIASE Renato45ITABOUFFIOL1:52:231:52:375:01 11.9960ve1667COUILLET
175.354RIGAUX Jess45BELHRC1:52:081:52:435:01 11.9861ve1669MARBEHAN
176.2297RENARD Luc46BEL1:52:161:52:475:01 11.9762ve1667PESCHES
177.337DAMSTEN Thierry46FIN1:52:501:52:585:02 11.9563ve1662RO
178.500CHARLIER Jacky50BELARCH1:53:031:53:085:02 11.9339ve2659BEAURAING
179.2389GREGOIRE Etienne41BEL1:52:481:53:105:02 11.9364ve1661VEDRIN
180.2354BODET Quentin17BEL1:52:501:53:115:02 11.935esp660SENSENRUTH
181.259LOUIS Vincent44BELARCH1:52:471:53:135:02 11.9265ve1660CINEY
182.297BOUCHAT Albert43BELJOGGPLUS1:52:441:53:135:02 11.9266ve1660MEUX
183.685LETELLIER Jean Luc45BEL1:53:261:53:265:03 11.9067ve1653WAVRE
184.2604SERVOZ Michel56FRA1:53:071:53:265:03 11.9040ve2655BRUXELLES
185.658BAIJOT Eric44BELARCH1:53:291:53:345:03 11.8968ve1651DINANT
186.601DEMOULIN Laurent37BELBAIL RUN1:53:081:53:375:03 11.8851sen654SAINT SERVAIS
187.705VANDEVENNE Patrick47BELUSBW1:53:251:53:385:04 11.8869ve1650WATERLOO
188.2455GOSSELIN Robert44BELKAAG1:52:501:53:395:04 11.8870ve1656FLOBECQ
189.992LETHE Vincent50BELRONVAU1:53:311:53:415:04 11.8841ve2648TOURINNES-SAINT
190.2524NICOLAS José42BEL1:53:221:53:415:04 11.8871ve1649
191.623PISCART Pierre50BELMOHAOXY20001:53:351:53:485:04 11.8642ve2647HAVRE
192.463WALLEE Alain54BELTENDONS1:53:411:53:515:04 11.8643ve2645LA HULPE
193.2522BUFFET Yannick44BEL1:53:221:53:525:04 11.8672ve1647
194.2501VAN RELEGEM Tony44BEL1:53:391:53:575:04 11.8573ve1645WEERDE
195.2627LACLAVERIE Laurent44BEL1:53:351:53:585:04 11.8574ve1645
196.494SOSSONG Thierry38BEL1:53:521:54:035:05 11.8452sen641MEIX-LE-TIGE
197.2358BULTEL Patrick47FRALA MACÉRIENN1:53:471:54:035:05 11.8475ve1642CHARLEVILLE MEZ
198.478WILMET Paul60BELARCH1:53:371:54:035:05 11.8410ve3643CINEY
199.2274NUYENS Thierry48BELBOUFFIOLS1:53:511:54:055:05 11.8376ve1640TAMINES
200.2515COLLARD Didier47BELPSA ACC1:53:571:54:075:05 11.8377ve1639
201.2576MANSHOVEN Rene56BELACA1:54:011:54:155:05 11.8244ve2637ALKEN
202.498HEYNDRICKX Jan48BELKAPUCIJN1:54:211:54:285:06 11.7978ve1634BERTEM
203.533MARTIN Laurent29BELHRC1:54:111:54:345:06 11.7853sen635NAMUR
204.2488RENARD Patrick Gilbert51BELACO1:53:521:54:345:06 11.7845ve2637REMICOURT
205.2620MITTERMAYER Felix43AUTPARA1:54:171:54:365:06 11.7879ve1632BRUXELLES
206.2617KAYSER Thierry47BEL1:54:091:54:405:06 11.7780ve1633ARLON
207.233DECROIX Olivier44BELSMAC1:54:221:54:535:07 11.7581ve1631DAVE
208.608ROSSI Stephane44BELSCBUTG1:55:031:55:065:07 11.7382ve1624ROBERTVILLE
209.2570IDRISSON Seghie54FRA1:54:471:55:085:08 11.7346ve2626
210.2547PONCIN Pierre55BEL1:55:151:55:325:09 11.6847ve2621
211.2499VAN RAVESTYN Mathieu25BEL1:55:171:55:365:09 11.6854sen620
212.365DESCHUYTENEER Marc31BELTORTUES1:55:211:55:385:09 11.6755sen619CEROUX MOUSTY
213.2301RUYMEN Michel54BELACA1:55:231:55:385:09 11.6748ve2618SINT-TRUIDEN
214.2411MEUNIER Pascal47FRAAS SOMMER SE1:55:341:55:435:09 11.6783ve1616STENAY
215.326GREGOIRE Claude Bernard50BEL1:55:271:55:485:09 11.6649ve2617NAMUR
216.2495TILLIEUX Guy60BELVACH1:55:371:55:525:09 11.6511ve3614HASSELT
217.2557RIHON Paul54BEL1:55:211:56:035:10 11.6350ve2616GRACE HOLLOGNE
218.2269JANSSENS Philippe56BELWALCOURSE1:55:581:56:085:10 11.6251ve2610WALCOURT
219.2443VAN DOORSSELAERE Jos30BEL1:55:141:56:095:10 11.6256sen616GENT
220.2581BRUCK Andy16BEL1:55:311:56:095:10 11.626esp613
221.592DEPLUS Jean Marie63BEL1:55:561:56:095:10 11.6212ve3609COURCELLES
222.454MAURO Calogero70BELSERSERUNNER1:56:031:56:095:10 11.621ve4607SERAING
223.2471GRABIJN Gerard46NLD1:56:101:56:185:11 11.6184ve1605
224.2296LAUWERS Bernard50BELNAC1:56:011:56:205:11 11.6052ve2606BAULERS
225.2639DE RIDDER Peter35BEL1:55:471:56:225:11 11.6057sen608LONDERZEEL
226.2261FORTUN Joffrey32BELTRIGT1:56:141:56:255:11 11.6058sen603HERNE
227.2583BULTEAU J.Paul56BELJAMES1:56:101:56:275:11 11.5953ve2603LOUVAIN LA NEUV
228.2396HUS Rudy47BEL1:56:151:56:275:11 11.5985ve1602MOL
229.2552DENONCIN Thierry51BEL1:56:181:56:315:11 11.5954ve2601
230.466FDEMOULIN Brigitte50BELRCNAMUR1:56:111:56:335:11 11.581ai2602LUSTIN
231.591LEROY Marc45BELUSBW1:56:251:56:485:12 11.5686ve1599BRAINE L'ALLEUD
232.2378D'HERDE Marc45BELCABWNAC1:56:311:56:515:12 11.5587ve1597NIVELLES
233.285MUYTJENS Rene65BELANTILOB1:56:371:56:555:12 11.5513ve3596OTTIGNIES
234.2376DERÈSE Eddy35BELRUNNING CLUB1:56:311:56:555:12 11.5559sen596FLAWINNE
235.2485THOMAS Damien33ESCARGOTEAM1:56:321:57:015:13 11.5460sen595
236.536RYCKEBOER Marc44BELRCB1:56:481:57:035:13 11.5388ve1593LA HULPE
237.2468DECANCK Marcel62BELBOTTELARE KW1:56:541:57:165:13 11.5114ve3591
238.2359BUSTIN Alain60BEL1:57:281:57:355:14 11.4815ve3585BOUGE
239.655ROBAYE Eddy40BEL1:57:031:57:375:14 11.4889ve1589MAILLEN (ASSESS
240.2520POIKANS Aivis39LVA1:57:111:57:405:14 11.4761sen587WOLUWE-SAINT-LA
241.2363FCOENEN Chantal36BELCTH1:57:331:57:435:14 11.479dam583BEKKEVOORT
242.2438TUYLS Bruno55BEL1:57:331:57:435:14 11.4755ve2582BIERBEEK
243.786WARNAU Yves62BELENJWOL1:57:471:57:475:15 11.4616ve3580DROGENBOS
244.2391HANNARD Kévin27BEL1:57:441:57:485:15 11.4662sen580AUVELAIS
245.2390HANNARD Bernard52BEL1:57:471:57:515:15 11.4656ve2579HOUDREMONT
246.366FLANSLOTS Viviane45BELARACAVN1:57:341:57:525:15 11.456ai1580MERKSPLAS
247.763LECERF Jean-Luc54BEL1:57:221:57:565:15 11.4557ve2581UCCLE
248.209GODEFRIDI Thierry59BEL1:57:361:58:025:15 11.4458ve2578RIXENSART
249.339VAN WEVERBERG Marc47BELJOGGANS1:57:461:58:055:15 11.4390ve1577GANSHOREN
250.2442VAN DER HOEVEN Yves45BELJOGGING+MUT21:58:131:58:175:16 11.4191ve1572LONDERZEEL
251.2372FDE SMET Sarah37BELJOGGING+MUT21:58:131:58:185:16 11.4110dam571LONDERZEEL
252.2600FBARTZ Laurence41BELSPHO1:57:371:58:195:16 11.417ai1576STAMBRUGES
253.2289BAURAIN Cedric33BEL1:57:561:58:205:16 11.4163sen573MELLET
254.594PARDON Pascal43BEL1:57:571:58:205:16 11.4192ve1572MELLET
255.2599HAUBRUGE D421:57:391:58:225:16 11.4193ve1574
256.189MARIEN Rik61BELVACH1:57:511:58:325:17 11.3917ve3572HASSELT
257.2453WALRAVENS Pierre25BEL1:58:041:58:385:17 11.3864sen569DEUX-ACREN
258.411LUYPAERT Armand60BELGRIM1:58:331:58:395:17 11.3818ve3565MEISE
259.296DESSEILLE Ernest56BEL1:58:181:58:515:17 11.3659ve2566WEPION
260.526NORMAND Daniel49BELJCCS1:58:481:58:545:18 11.3594ve1561RIENNE
261.178HENDRIX Daniel63BELESM1:58:131:58:575:18 11.3519ve3566GILLY
262.240FONTAINE Bernard47BELKURISTO1:58:571:59:055:18 11.3495ve1559BRUXELLES
263.2395HUS Eric45BEL1:58:551:59:085:18 11.3396ve1558MOL
264.2463WAGNER Sebastien38FRAAS SOMMER SE1:58:571:59:125:18 11.3365sen558VRIGNE MEUSE
265.721PANHUYSEN Michiel44BELBAIL RUN1:58:361:59:135:18 11.3297ve1560YVOIR
266.773CARRIER Serge46BEL1:58:281:59:135:18 11.3298ve1561JAUCHE
267.724FHEUCHON Murielle38BELESM1:58:291:59:145:18 11.3211dam560MONTIGNY LE TIL
268.2310FOST Isabelle31BELTEAM NELLES1:59:141:59:205:19 11.3112dam553BRUXELLES
269.275COLLOT Joseph46BELANTILOB1:58:451:59:215:19 11.3199ve1557GREZ-DOICEAU
270.499LAURENT Philippe44BELBAIL RUN1:58:531:59:295:19 11.30100ve1555YVOIR
271.565FBERKES Celine34BELHRC1:58:521:59:305:19 11.3013dam555BLEID
272.2553LAMBERT Dominique43BELACDAMP1:58:521:59:305:19 11.30101ve1554
273.2369DARCQ François46FRAFFALOCAL CLUB M1:59:211:59:305:19 11.30102ve1549NOUZONVILLE
274.782TOUSSAINT Amaury34BELBAIL RUN1:58:541:59:305:19 11.3066sen553HOUX
275.2444VANACKERE Gilles Patrick17BELANTILOB1:58:511:59:365:19 11.297esp553OTTIGNIES-LOUVA
276.2418NOOTENS Gerbrand43BEL1:58:381:59:375:19 11.29103ve1554GENT
277.225OLIVIER Pierre52BELACOAC OREYE1:59:001:59:415:20 11.2860ve2550HANEFFE
278.474FHENRY Manon16BEL1:59:331:59:465:20 11.271esf545LA HULPE
279.393VAN DENBERGHE Nicolas20BELRCNAMURCNAMUR1:59:181:59:525:20 11.2667sen546JAMBES
280.2400LACROIX Bernard61BELNAC1:59:381:59:585:20 11.2520ve3543ECAUSSINNES
281.2597OULARD Ahmed511:59:382:00:035:21 11.2561ve2542
282.2554FTOUSSAINT Pascale44BELASPTT CHALON1:59:392:00:045:21 11.248ai1542BRECHT
283.2551JANIN Daniel44BELASPTT1:59:372:00:045:21 11.24104ve1541
284.2623PONCIN Gerard54BELNATAGORA1:59:322:00:055:21 11.2462ve2541LONGLIER
285.2596NELISSEN Guido55BELDCLA2:00:082:00:215:21 11.2263ve2536LEUVEN
286.2428ROGER Fabien39FRAFFALOCAL CLUB M2:00:192:00:265:22 11.2168sen534NOUZONVLLE
287.554ECHEMENT Maxime35BEL1:59:412:00:335:22 11.2069sen539BRUXELLES
288.2420PAYER Manu45FRAFJEP ATTIGNY2:00:272:00:365:22 11.19105ve1532
289.735JORDANT Benoit48BELARCH2:00:032:00:395:22 11.19106ve1534YVOIR
290.2357BRUYÈRE Serge51BEL2:00:372:00:425:22 11.1864ve2529FALISOLLE
291.458DE WULF Luc55BELESM2:00:022:00:465:23 11.1865ve2534MARCHIENNE-AU-P
292.2268HULPIAU Cedric37BELCCSTC2:00:242:00:495:23 11.1770sen530BOUSSU-LEZ-WALC
293.2447VANMEERHAEGHE Alain29BEL2:00:242:00:505:23 11.1771sen529ETTERBEEK
294.710RASSAERTS Rudi50BELJOKA2:00:462:01:035:23 11.1566ve2525WESPELAAR
295.732DE MEES Marc68BELKAPUCIJN2:00:532:01:095:24 11.1421ve3524RIJMENAM
296.2413FMORAT Murielle39FRAFJEP ATTIGNY2:00:572:01:145:24 11.1414dam523
297.104GAUTIER Jacques48BEL2:00:472:01:155:24 11.13107ve1524MEUX
298.743RATINCKX Michel53BELRIWAHERMATH2:01:172:01:245:24 11.1267ve2519BIERGES
299.168FCHAPELLE Carole43BELRCNAMUR2:01:072:01:435:25 11.099ai1519SOYE
300.561HAINAUT Charles51BEL2:01:482:01:565:26 11.0768ve2513GERPINNES
300.2412MITONNEAU Régis42FRAFFAUA VILLENOY2:01:462:01:565:26 11.07108ve1514MEAUX
302.509CAPRASSE Dominique58BEL2:01:562:02:055:26 11.0669ve2511HERON
303.2433SOMMELETTE Pascal37BEL2:01:462:02:065:26 11.0672sen511BRUXELLES
304.2631THOMAS Olivier43BELTITAN2:01:232:02:125:26 11.05109ve1514
305.2457DEFOIN Hugues46BEL2:01:312:02:155:26 11.04110ve1513
306.2279STREBER Fernand55BELARCHARCH2:02:122:02:175:27 11.0470ve2506SERINCHAMPS
307.2613VERCRUYSSE Sebastien35BEL2:02:032:02:245:27 11.0373sen507
308.2607NR 2607 XXX2:02:042:02:255:27 11.031xxx506
309.2392HANNARD Laurent39BEL2:02:272:02:275:27 11.0274sen502OIZY
310.2435TEUGHELS Laurent45BEL2:02:152:02:315:27 11.02111ve1504
311.2595STREBER Georges56BELVREDESEILAND2:01:562:02:325:27 11.0271ve2506BRUXELLES
312.94FPELTGEN Marie-Paule49BEL2:02:252:02:465:28 11.0010ai1501EGHEZEE
313.2606FORTHOMME Fabian36BEL2:02:072:02:485:28 10.9975sen503
314.2425PUTZ Eric32BELWELL RUNNERS2:02:342:02:555:28 10.9876sen499UCCLE
315.2563LEROY Jean-Pierre39BELJTTR2:02:562:02:565:28 10.9877sen495
316.1HEINEN Henri66BELSERSERUNNER2:02:432:02:575:28 10.9822ve3496SERAING
317.2303DAMBLON Georges59BELJTRR-BJB2:02:262:02:575:28 10.9872ve2498PETIGNY
318.105BENDOTTI Lorenzo62BELSERSERUNNER2:02:492:02:575:28 10.9823ve3494SEILLES
319.2313FOSSEZ Pascal50BELESM2:02:182:03:025:29 10.9773ve2498GOZEE
320.2276FPLUMET Carine47BEL2:02:392:03:115:29 10.9611ai1495
321.419POSKIN Bernard59BELMSF2:02:382:03:125:29 10.9674ve2494PERONNES-LEZ-BI
322.2271MAGOTTEAUX Hubert47BELNACNAC2:02:332:03:135:29 10.96112ve1494OBAIX
323.346LELOUP Yves56BELFLEU2:03:022:03:155:29 10.9575ve2490SAINT-AMAND
324.2591BOFFEL Stijan31BELMOLENLOPERS2:03:082:03:185:29 10.9578sen488
325.2590FVAN CASTER Sandrine Yvonne36BELSWIFT2:02:412:03:195:29 10.9515dam492LA HULPE
326.2426RADDOUX Hervé33BELWELL RUNNERS2:03:062:03:275:30 10.9479sen487TIENEN
327.585MOENS Alain56BELCEPAL2:03:322:03:365:30 10.9276ve2483KRAAINEM
328.583FDION Chantal59BELCEPAL2:03:332:03:375:30 10.922ai2483KRAAINEM
329.2561DOURLET Noel49FRAASPTT CHALON2:03:192:03:445:30 10.91113ve1484
330.2537RENARD Georges60BELHRC2:03:342:03:525:31 10.9024ve3481
331.2565ROZOY Patrice61BELVOUZIERS-OXY2:03:362:03:535:31 10.9025ve3481
332.2291DE KEYSER Gust62BEL2:03:252:03:585:31 10.8926ve3481VLEZENBEEK
333.2424POEKES Benjamin27BEL2:03:262:04:005:31 10.8980sen481YUTZ
334.2458BITCHEN Piette20BEL2:03:172:04:025:31 10.8881sen482
335.2355FBOES Odette57BELJOGGANS GANS2:04:002:04:065:31 10.883ai2475ASSE
336.2539DE WILDE Marc42BELANTILOB2:03:212:04:125:32 10.87114ve1480
337.413LIVEMONT Emmanuel49BELRRTCHATEL2:03:222:04:195:32 10.86115ve1479SUARLEE
338.2549REISER Nicolas28BEL2:03:452:04:195:32 10.8682sen475
339.854FPROBST Christine28LUXTORTUES2:04:052:04:225:32 10.8516dam472LUXEMBOURG
340.216DECHAMPS Henri48BEL2:04:022:04:235:32 10.85116ve1472BONEFFE
341.2470KASPARIAN Yves35FRA2:04:032:04:235:32 10.8583sen471FONTAINEBLEAU
342.2571BRICE Jean-Marie55FRA2:04:162:04:275:32 10.8577ve2469
343.2566PRÉVOT Cédric33BELUSBWJAMES2:04:052:04:345:33 10.8484sen470LOUVAIN-LA-NEUV
344.2465AZOU Dominique39BEL2:04:392:04:505:33 10.8185sen464
345.2422PHILIPPOT Valéry34BELRCSPL2:04:422:05:025:34 10.8086sen463ALLEUR
346.2419OSTYN Philippe44BELITC2:04:332:05:165:35 10.78117ve1464
347.2308DESCY François55BELAMIS DU JEUD2:04:282:05:175:35 10.7878ve2464
348.2614GAILLARD Jean Pierre49BEL2:04:542:05:235:35 10.77118ve1460
349.2555CHENNAUX Michel57BEL2:05:222:05:425:36 10.7479ve2456
350.201HOUDART Yves38BELACLO2:05:312:05:425:36 10.7487sen454LA LOUVIERE
351.407BRYNART Alain50BELACLO2:05:312:05:435:36 10.7480ve2453HOUDENG-AIMERIE
352.2469JADOT Frédéric Thierry38BELARCH2:05:332:06:005:36 10.7188sen453DINANT
353.121PLATTEAU Emmanuel39BELETCHIEVR2:05:392:06:105:37 10.7089sen451BOUVIGNIES
354.2368CRASSET Philippe46BELJCCS2:06:082:06:195:37 10.69119ve1446TUNTANGE
355.616NOEL Gerard58BELARCH2:05:462:06:225:37 10.6881ve2449NATOYE
356.112ROBERT Guy52BELFLEUFLEU ATHL2:06:012:06:235:38 10.6882ve2446GODARVILLE
357.762DELPORT Patrick55BELJOGGANS2:05:402:06:345:38 10.6783ve2448BRUXELLES
358.2380FDUJACQUIER Magali35BEL2:05:502:06:345:38 10.6717dam447IXELLES
359.2584BERTRAND Dominique48BELACO OREYE2:05:572:06:375:38 10.66120ve1445HANEFFE
360.2492GRASSER Pascal60BEL2:06:112:06:375:38 10.6627ve3442
361.2529FHAULAIT Sandra29BELCEPAL2:06:232:06:415:38 10.6618dam440WATERMEAL-BOITS
362.2528LENGELE Sebastien35BELSPA REINE2:06:392:06:415:38 10.6690sen438BRUXELLES 17
363.2589JAMART Eric52BELTITAN2:06:322:06:485:39 10.6584ve2438
364.2464GEORGES Marc50FRAMACERIENNE2:06:342:06:505:39 10.6485ve2437
365.2491DEBECKER David39BELPHYSICAL CEN2:06:472:07:025:39 10.6391sen435BRUXELLES (FORE
366.2300LEFEVERE Alain51BEL2:06:572:07:115:40 10.6186ve2433SINT TROND
367.2514KLEIN Thierry47FRAATHLETIC BEL2:06:372:07:195:40 10.60121ve1435CHARLEVILLE-MEZ
368.758FRANSSEN Benjamin50BEL2:06:402:07:215:40 10.6087ve2434CORTIL WODON
369.81PEETERS Herman72BELROBA2:07:222:07:295:40 10.592ve4428WESPELAAR
370.508PAINDAVOINE Jean Claude52BEL2:06:582:07:295:40 10.5988ve2430SILLY
371.532FDE VROEDE Nadine49BELUSBWROAD TEAM2:07:032:07:305:40 10.5912ai1429BRAINE L'ALLEUD
372.923CEULEMANS Nicolas40BELANTILOB2:06:492:07:335:41 10.58122ve1431INCOURT
373.2493D'ARPINO Angelo Sylvano39BEL2:07:242:07:405:41 10.5792sen425HOUTHALEN-HELCH
374.2450VERRUE Francis62BELBAC2:07:332:07:465:41 10.5728ve3424BRUNEHAUT (GUIG
375.2569KUHNE Jean-Michel46FRAVOUZIERS-OXY2:07:182:07:575:42 10.55123ve1425
376.2430SAMAIN Jean-Luc50BELSMAC2:07:372:08:015:42 10.5589ve2422CORROY LE CHATE
377.442DERNIER J.Marc56BELAMAY2:07:312:08:115:42 10.5390ve2422VILLERS-LE-BOUI
378.2545RENNESON Pascal50BEL2:07:552:08:145:42 10.5391ve2418
379.538GREGOIRE Denis39BEL2:07:432:08:175:43 10.5293sen419FERNELMONT
380.375HERMANS Luc60BELANPCV2:07:522:08:275:43 10.5129ve3418LIBIN
381.901RENAUX Jean-Louis50BELHRC2:08:052:08:325:43 10.5092ve2415HABAY-LA-NEUVE
382.624LONGEVAL Jan45BEL2:08:192:08:335:43 10.50124ve1413DEURLE
383.2494PIPELEERS René65BEL2:08:292:08:455:44 10.4930ve3411DIEPENBEEK
384.2306KENNES Christian56BELMARS2:08:332:09:235:46 10.4393ve2410BRUXELLES
385.2407LOOTENS Karel37BEL2:08:322:09:275:46 10.4394sen409GENT
386.317GUIRCHE Albert58BELSPIBOR2:09:182:09:295:46 10.4394ve2403BOUSSU
387.2410MELONI Marco35ITA2:09:092:09:375:46 10.4295sen403ATHUS
388.2265GUIOT Jacques53BEL2:09:312:09:435:46 10.4195ve2400HARGNIES
389.2509GOWIE Christian51BELCETELEM2:09:032:09:465:47 10.4096ve2403BRUXELLES
390.199ALAIME Sebastien38BEL2:09:262:09:505:47 10.4096sen399WAVRE
391.2497BAUGNIET Philippe522:09:302:09:545:47 10.3997ve2398
392.288DEPAS Marcel65BELSERSERUNNER2:09:412:09:565:47 10.3931ve3396SERAING
393.2532LAENENS Francis59BELRCBAXA TEAM2:09:262:09:585:47 10.3998ve2398WEMMEL
394.2632DELVENNE Marc44BEL2:09:312:10:095:48 10.37125ve1396
395.224BARBIER Yves50BELUSBWSO BARLIN2:10:032:10:095:48 10.3799ve2392BRAINE-L'ALLEUD
396.2429SAAL Vincent35BEL2:09:482:10:115:48 10.3797sen393HOGNOUL
397.575DUBOIS Frederic39BELETH RUNN2:09:352:10:165:48 10.3698sen394LIEGE
398.2423PISVIN Miguel38BEL2:09:352:10:165:48 10.3699sen394NEUPRÉ
399.741WECKMANS Michael18BEL2:10:212:10:285:48 10.358esp387HOGNOUL
400.2507HAEKENS Jean-Marie44BELBJCBJC2:10:152:10:295:48 10.35126ve1387BILZEN
401.2568FGUYOT Marie-Helene45FRAVOUZIERS-OXY2:10:142:10:315:49 10.3413ai1387
402.2384FGABREAUX Anne43FRAFJEP ATTIGNY2:10:242:10:325:49 10.3414ai1385
403.455HENRY Renaud26BELJCCS2:10:122:10:385:49 10.33100sen386PONTAURY METTET
404.2284BEERENS Jan50BEL2:10:032:10:475:49 10.32100ve2387
405.83PEETERS Quentin31BELSPTWAVRE2:10:152:10:525:49 10.32101sen384BRUXELLES
406.69FSCHRÖDER Cindy38BELKAPUCIJN2:10:212:10:555:50 10.3119dam383BERTEM
407.577VAN BAVEL Jos52BELAVN2:10:382:10:565:50 10.31101ve2380MINDERHOUT
408.993LELOUP Stephan56BELRIWA2:10:572:11:055:50 10.30102ve2377ROSIERES
409.2267HITTINGER Fabien52FRAASPTT2:10:512:11:185:51 10.28103ve2377CHALONS EN CHAM
410.2628DEFOIN Xavier45BEL2:10:322:11:195:51 10.28127ve1380
411.340FGONZALEZ MADRID Pilar44BELENJWOL2:09:222:11:215:51 10.2815ai1388BRUXELLES
412.208BOUTEFEU Jacques50BELESMRRTCHATELET2:10:302:11:225:51 10.28104ve2378MONTIGNIES-SUR-
413.372FLEBEAU Marianne46BELUSBWROAD TEAM2:10:542:11:245:51 10.2716ai1375RHODE ST GENÈSE
414.755VAN HEULENBERGHE Frank54BEL2:10:342:11:275:51 10.27105ve2377GENT
415.2610LONGEPEE Philippe49FRA2:11:072:11:275:51 10.27128ve1372
416.2436THIEREN Pierre66BELSPORT POUR T2:11:052:11:475:52 10.2432ve3372WAVRE
417.745POMES Jean-Paul60BELHRC2:11:222:11:505:52 10.2433ve3369NOBRESSART
418.391FVAUSE Fabienne45BELSMAC2:11:062:11:535:52 10.2417ai1370MALONNE
419.196MALENGREAUX Patrice48BELTORTUES2:11:112:11:565:52 10.23129ve1369BRAY
420.2518VASSANT Dominique48BELGRAC2:11:592:12:225:53 10.20130ve1362
421.66FGEVENOIS M.Rose60BELUACDILAVILE2:12:152:12:245:54 10.201ai3360LES BONS VILLER
422.771COPET Fabian38BELWAL'COURSE2:11:362:12:255:54 10.20102sen364THY-LE-CHATEAU
423.613SCHOEPS Yvan72BEL2:12:242:12:305:54 10.193ve4357BRAINE-LE-COMTE
424.2536BOCKX Greet46BEL2:12:182:12:335:54 10.18131ve1357
424.2538CLAEYS Dirk53BEL2:12:192:12:335:54 10.18106ve2357
426.172HARMEGNIES Michel49BELTRIGTSPIBOR2:12:282:12:405:54 10.18132ve1355HORNU
427.722FMAALSTE Nicole44BELBAIL RUN2:12:122:12:515:55 10.1618ai1356YVOIR
428.2255DE WILLEMACKER Carlos56BELJC AALTER2:12:292:12:535:55 10.16107ve2354AALTER
429.2480GAGEOT Pascal49FRAPSA PEUGEOT2:12:422:12:555:55 10.16133ve1351
430.2371FDE KOCKER Delphine38FRAFJEP ATTIGNY2:12:582:13:065:55 10.1420dam349
431.2582FEDRIAT Nathalie44FRANAC2:12:422:13:065:55 10.1419ai1350BAISY-THY
432.2579COLSON Benoit44BELNAC2:12:442:13:085:56 10.14134ve1350BAISY-THY
433.433EVRARD Michel53BELARCH2:13:122:13:475:57 10.09108ve2345CINEY
434.190DELCAMPE Marc54BELOXY20002:14:042:14:165:59 10.05109ve2338LE ROEULX
435.2431FSIMONET Dominique46FRAASPTT2:13:552:14:195:59 10.0520ai1339POGNY
436.510GEORGE Jean Pol59BEL2:13:352:14:275:59 10.04110ve2341BEAUVECHAIN
437.2399FKLEIN Marie-France51BELHRC2:14:042:14:315:59 10.044ai2336HABAY LA NEUVE
438.2625LEJEUNE Anthony16BEL2:13:552:14:325:59 10.039esp337
439.200FCORNET Anne44BELFLEU2:13:482:14:355:59 10.0321ai1337JEMEPPE SUR SAM
440.2635FGIOT Geraldine39BELJCCS2:14:192:14:386:00 10.0321dam333
441.2556FGUENIN Veronique50BELASPTT CHALON2:14:242:14:496:00 10.015ai2332
442.792BONTE Philippe53BELJOGGANS2:14:252:14:596:00 10.00111ve2331BRUXELLES
443.192GEUSKENS J.Marc46BEL2:14:492:15:016:01 10.00135ve1327BRUXELLES
444.2307MARCHANT Yves-Marie54BEL2:14:132:15:036:01 10.00112ve2331BRUXELLES
445.2290LOTERMAN Stephane36BEL2:14:112:15:056:01 9.99103sen331MARCINELLE
446.2293LEDUC Sebastien25BELFLEUJOGGPLUS2:14:112:15:056:01 9.99104sen330NAMUR
447.2588COLON Roland49BELTITAN2:14:252:15:126:01 9.99136ve1328
448.704VANDAM Jean47BELANTILOB2:14:232:15:126:01 9.99137ve1328COURT SAINT ETI
449.107EVRARD Pierre49BEL2:14:382:15:246:02 9.97138ve1325MALONNE
450.440ETIENNE Christian59BELRCNAMUR2:15:012:15:336:02 9.96113ve2322LEUZE-LONGCHAMP
451.2622FCOLLINGE Antoinette31BEL2:14:562:15:366:02 9.9622dam322LIÈGE
452.368VIAENE Bernard65BELHERV2:14:562:15:526:03 9.9434ve3321HERVE
453.2636FGIOT Anne-Sophie27BELJCCS2:15:492:16:076:03 9.9223dam314
454.2287MATHYS Antoine63BELVDAB2:15:502:16:146:04 9.9135ve3313DE PINTE
455.2309COSTIER Eric46BEL2:15:482:16:196:04 9.90139ve1313
456.2445VANDEN DRIESCH François47BELDACM2:15:592:16:226:04 9.90140ve1311BRUXELLES
457.2484FSTAUB Sylvie45FRA2:16:352:16:446:05 9.8722ai1306PARIS
458.203ALBERT Michel49BELRONVAU2:16:302:16:516:05 9.86141ve1306LIERNU
459.2577SCHUMACKER Christophe36BEL2:16:302:17:026:06 9.85105sen305
460.2387GIROULLE Lionel34BEL2:16:462:17:066:06 9.85106sen303WANFERCÉE BAULE
461.2533JANSSENS Roland50BELTORTUES MESL2:16:152:17:086:06 9.84114ve2306LENS
462.761JORIS Sebastien41BEL2:16:502:17:136:06 9.84142ve1301MONT GODINNE
463.2379DHOKER Christian51BEL2:16:492:17:136:06 9.84115ve2301CHARENCY-VEZIN
464.681POLAIN Jean-Claude71BELHAC2:17:102:17:176:07 9.834ve4297GHLIN
465.2500FNAEGELS Christine39BEL2:17:022:17:226:07 9.8324dam298WEERDE
466.2397JANSSENS Dirk47BELDAC2:17:152:17:256:07 9.82143ve1296DILBEEK
467.528FOLLIER Beatrice60BELRCBJOGGANS2:17:132:17:306:07 9.822ai3295BRUXELLES
468.529GHYS Daniel55BELJOGGANS2:17:132:17:306:07 9.82116ve2295BRUXELLES
469.941HENZ Helmut71BELSCBUTG2:16:592:17:326:07 9.825ve4296BUTGENBACH
470.2377FDESEAU Sabine40BELJOGGANS2:17:152:17:336:07 9.8123ai1293ANDERLECHT
471.2503LONFILS Thierry46BELJTRR2:17:112:17:436:08 9.80144ve1294
472.64DEWIGNE Bernard53BELCSDY2:17:402:18:176:09 9.76117ve2289OTTIGNIES
473.2621HARTMAN Stéphane47BELBBS2:17:362:18:326:10 9.74145ve1289RECOGNE
474.170MALVOZ J.Remy64BELESM2:17:562:18:516:11 9.7236ve3286SENEFFE
475.2472ROOS Joël Albert42BEL2:17:562:18:516:11 9.72146ve1285FRASNES-LEZ-ANV
476.770HORION Vincent39BELRCNAMUR2:18:252:18:596:11 9.71107sen281LEUZE
477.2366CÔTE Henry-François33BEL2:18:582:19:176:12 9.69108sen277BASTOGNE
478.2449VERBOVEN Tom38BEL2:18:392:19:306:12 9.68109sen278BRUXELLES
479.2434SPIGT Laurens30BEL2:18:422:19:346:13 9.67110sen277BIEVRE
480.2315LEJEUNE Jean60BELHAC2:19:052:19:426:13 9.6637ve3274REBECQ
481.2263GAILLY Pierre54BEL2:19:222:20:186:15 9.62118ve2271OTTIGNIES
482.2498PARMENTIER Laurent342:19:572:20:306:15 9.61111sen266
483.155AKKERMANS Francois60BELBRASS2:20:142:20:436:16 9.5938ve3264BRASSCHAAT
484.726FMARTIN Isabelle26BELRCNAMUR2:20:282:21:016:17 9.5725dam261VEDRIN
485.2362CARPENTIER Dominique50FRACHA08VOUZIERS-OXY2:20:252:21:056:17 9.57119ve2261VOUZIERS
486.2630THOMAS Jean Pol53BELTITAN2:20:292:21:176:17 9.56120ve2260GENAPPE
487.186FHILLEN Hilde42BELAVN2:21:112:21:306:18 9.5424ai1254MEER
488.229HENRY Stephane50BELJCCS2:21:232:21:496:19 9.52121ve2252GEDINNE
489.2319NOTTEBART Daniel54BELPARA2:21:212:21:576:19 9.51122ve2252BRAINE L'ALLEUD
490.2361CAMPERS Gerald50BEL2:21:212:21:596:19 9.51123ve2252SAINT-MARC
491.2640PLATTEAU Olivier42BEL2:21:332:22:046:19 9.50147ve1249
492.2629NAUTS Benoit37BEL2:21:392:22:206:20 9.48112sen248BRUXELLES
493.2634LEQUENNE Olivier36BEL2:21:492:22:406:21 9.46113sen246WARISOULX
494.2356BRISMÉ Claude30BEL2:21:552:22:406:21 9.46114sen245GILLY CHARLEROI
495.102BAILLY Laurent41BELARCH2:22:082:22:436:21 9.46148ve1243BELGRADE
496.147FDE MOREAU Monique46BELARCH2:22:102:22:446:21 9.4625ai1242HAVERSIN
497.790FOLIE Yvon53BEL2:22:052:22:456:21 9.46124ve2242AWENNE (SAINT-H
498.776FELIERS Yvan64BELSPVIKAPUCIJN2:22:482:22:486:21 9.4539ve3236TERVUREN
499.2481FBORGNET Marie55BELLES COUREUX2:22:302:22:496:21 9.456ai2238
500.2482FDOMINE Sandrine44BELLES COUREUX2:22:292:22:496:21 9.4526ai1238
DNF: abandon; DSQ: disqualifié; Vitesse en km/h
Page: [1] 2